User: anonymous   Login
Location: Big Prairie
(40.6673°N, 82.0952°W)
Time: 20:49:07
(UTC+00:00)
Language:

Cosmos 2208 Rocket - Orbit

View from above orbital plane
View from above orbital plane
View from above satellite
View from above satellite

Ground track
Ground track

The orbit data is extracted from the following two-line orbital elements,

1 22081U 92053B   22144.77996490  .00000197  00000-0  80174-4 0  9997
2 22081  74.0460  23.4471 0036907 271.1315  88.5608 14.33608104556654
Epoch (UTC): 24 May 2022 18:43:08
Eccentricity: 0.0036907
inclination: 74.0460°
perigee height: 753 km
apogee height: 806 km
right ascension of ascending node: 23.4471°
argument of perigee: 271.1315°
revolutions per day: 14.33608104
mean anomaly at epoch: 88.5608°
orbit number at epoch: 55665

The dashed part of the orbit path shows where the satellite is in the earth's shadow,  

DLR